Location: Marcé
(47.5801°N, 0.3280°W)
Time: 15:20:55
(UTC+02:00)

ACS3 Solar Sail - Pass Details

Date: 25 June 2024
Orbit: 992 x 1023 km, 97.4° (Epoch: 11 July)

Event Time Altitude Azimuth Distance (km) Brightness Sun altitude
Exits shadow 23:14:42 - 162° (SSE) 2,811 6.6 -9.5°
Reaches altitude 10° 23:14:50 10° 162° (SSE) 2,759 6.6 -9.5°
Maximum altitude 23:21:03 83° 76° (ENE) 1,008 4.9 -10.2°
Drops below altitude 10° 23:27:18 10° 349° (N) 2,768 8.3 -10.8°
Sets 23:29:47 0° 349° (NNW) 3,721 9.2 -11.0°
